contact:dominique.lefevre@mio.osupytheas.fr, maurice.libes@osupytheas.fr, didier.mallarino@osupytheas.fr
Project:EMSO http://www.emso-fr.org/EMSO-France
Depth: 2436.0 m
Title:EMSO Ligure Ouest : Data MII capteur AQUADOPP
Date,Latitude,Longitude,X_East,Y_North,Z_Up,Amplitude_X,Amplitude_Y,Amplitude_Z,Batterie,SoundSpeed,Heading,Pitch,Roll,Pressure,TIS,Speed,Direction
, degrees North, degrees East, m.s-1, m.s-1,m.s-1, 1, 1, 1, Volt, m.s-1, degree, degree, degree, dbar, degree_C, m.s-1, degree
2020-07-03T00:04:03,42.805,6.029,-0.05,-0.005,-0.028,107.0,107.0,103.0,13.4,1505.3,325.0,-0.7,1.8,2470.262,13.32,0.05,264.3
2020-07-03T00:07:03,42.805,6.029,-0.011,-0.005,0.005,107.0,108.0,103.0,13.4,1505.3,327.0,-0.7,1.8,2470.278,13.32,0.012,245.6
2020-07-03T00:10:03,42.805,6.029,-0.009,-0.005,0.013,106.0,108.0,103.0,13.4,1505.3,326.9,-0.7,1.8,2470.278,13.33,0.01,240.9
2020-07-03T00:13:03,42.805,6.029,-0.019,-0.013,-0.01,106.0,109.0,102.0,13.3,1505.3,325.9,-0.7,1.8,2470.289,13.33,0.023,235.6
2020-07-03T00:16:03,42.805,6.029,-0.017,-0.008,-0.035,106.0,107.0,103.0,13.4,1505.3,326.8,-0.7,1.8,2470.292,13.33,0.018,244.8
2020-07-03T00:19:03,42.805,6.029,-0.019,-0.01,-0.011,106.0,108.0,103.0,13.4,1505.3,324.8,-0.7,1.8,2470.281,13.33,0.021,242.2
2020-07-03T00:22:03,42.805,6.029,-0.05,-0.025,0.001,107.0,108.0,103.0,13.4,1505.3,324.4,-0.7,1.8,2470.246,13.33,0.055,243.4
2020-07-03T00:25:03,42.805,6.029,-0.004,0.011,0.015,106.0,107.0,102.0,13.4,1505.3,323.7,-0.7,1.9,2470.269,13.33,0.011,340.0
2020-07-03T00:28:03,42.805,6.029,-0.032,0.001,-0.02,106.0,108.0,104.0,13.3,1505.3,325.4,-0.7,1.8,2470.243,13.33,0.032,271.8
2020-07-03T00:31:03,42.805,6.029,-0.024,0.008,-0.042,106.0,109.0,103.0,13.3,1505.3,323.3,-0.7,1.8,2470.273,13.33,0.025,288.4
2020-07-03T00:34:03,42.805,6.029,-0.058,0.006,-0.006,106.0,108.0,101.0,13.4,1505.3,325.4,-0.7,1.8,2470.288,13.33,0.058,275.9
2020-07-03T00:37:03,42.805,6.029,-0.013,0.0,0.036,107.0,107.0,103.0,13.4,1505.3,323.0,-0.7,1.8,2470.256,13.33,0.013,270.0
2020-07-03T00:40:03,42.805,6.029,-0.018,0.002,0.0,106.0,108.0,104.0,13.4,1505.3,324.7,-0.7,1.8,2470.276,13.33,0.018,276.3
2020-07-03T00:43:03,42.805,6.029,-0.011,0.0,0.005,106.0,107.0,104.0,13.4,1505.3,323.6,-0.7,1.8,2470.257,13.33,0.011,270.0
2020-07-03T00:46:03,42.805,6.029,-0.008,-0.01,0.016,106.0,107.0,102.0,13.4,1505.3,325.9,-0.7,1.9,2470.255,13.33,0.012,218.7
2020-07-03T00:49:03,42.805,6.029,-0.028,0.0,-0.027,106.0,109.0,103.0,13.4,1505.3,326.7,-0.7,1.8,2470.245,13.33,0.028,270.0
2020-07-03T00:52:03,42.805,6.029,-0.046,-0.005,-0.014,106.0,108.0,103.0,13.3,1505.3,323.8,-0.7,1.8,2470.246,13.33,0.046,263.8
2020-07-03T00:55:03,42.805,6.029,-0.044,0.0,-0.031,105.0,108.0,102.0,13.4,1505.3,327.1,-0.7,1.9,2470.321,13.33,0.044,270.0
2020-07-03T00:58:03,42.805,6.029,-0.016,-0.001,-0.015,107.0,108.0,102.0,13.3,1505.3,324.7,-0.7,1.8,2470.28,13.33,0.016,266.4
2020-07-03T01:04:03,42.805,6.029,-0.005,-0.009,-0.013,106.0,110.0,104.0,13.4,1505.3,327.8,-0.7,1.8,2470.297,13.32,0.01,209.1
2020-07-03T01:07:03,42.805,6.029,-0.018,0.009,0.031,106.0,107.0,102.0,13.3,1505.3,326.5,-0.7,1.8,2470.3,13.32,0.02,296.6
2020-07-03T01:10:03,42.805,6.029,-0.04,0.0,0.01,106.0,109.0,102.0,13.3,1505.3,324.9,-0.7,1.8,2470.276,13.33,0.04,270.0
2020-07-03T01:13:03,42.805,6.029,-0.04,-0.019,-0.044,105.0,107.0,103.0,13.3,1505.3,326.3,-0.7,1.8,2470.307,13.33,0.044,244.6
2020-07-03T01:16:03,42.805,6.029,-0.043,0.011,-0.007,105.0,107.0,102.0,13.4,1505.3,326.9,-0.7,1.8,2470.262,13.33,0.044,284.3
2020-07-03T01:19:03,42.805,6.029,-0.046,0.007,-0.025,104.0,108.0,103.0,13.4,1505.3,324.8,-0.7,1.8,2470.32,13.33,0.046,278.7
2020-07-03T01:22:03,42.805,6.029,-0.023,-0.017,0.012,104.0,106.0,102.0,13.4,1505.3,325.0,-0.7,1.9,2470.292,13.33,0.028,233.5
2020-07-03T01:25:03,42.805,6.029,-0.044,-0.019,-0.034,104.0,107.0,103.0,13.4,1505.3,326.7,-0.7,1.8,2470.292,13.33,0.047,246.6
2020-07-03T01:28:03,42.805,6.029,-0.043,0.004,-0.028,106.0,107.0,102.0,13.3,1505.3,323.5,-0.7,1.8,2470.291,13.33,0.043,275.3
2020-07-03T01:31:03,42.805,6.029,0.022,-0.008,0.0,106.0,108.0,102.0,13.4,1505.3,326.8,-0.7,1.8,2470.276,13.33,0.023,110.0
2020-07-03T01:34:03,42.805,6.029,-0.022,0.021,0.001,106.0,109.0,103.0,13.4,1505.4,325.7,-0.7,1.8,2470.268,13.34,0.03,313.7
2020-07-03T01:37:03,42.805,6.029,-0.004,-0.004,0.01,106.0,109.0,102.0,13.4,1505.4,324.6,-0.7,1.8,2470.283,13.34,0.005,225.0
2020-07-03T01:40:03,42.805,6.029,-0.039,-0.022,-0.026,106.0,108.0,104.0,13.4,1505.3,324.3,-0.7,1.9,2470.259,13.33,0.044,240.6
2020-07-03T01:43:03,42.805,6.029,-0.027,-0.011,-0.038,106.0,109.0,102.0,13.4,1505.4,326.8,-0.7,1.9,2470.293,13.34,0.029,247.8
2020-07-03T01:46:03,42.805,6.029,-0.04,-0.019,-0.01,106.0,106.0,103.0,13.3,1505.3,324.5,-0.7,1.8,2470.265,13.33,0.044,244.6
2020-07-03T01:49:03,42.805,6.029,0.014,-0.009,0.007,107.0,109.0,102.0,13.4,1505.3,327.2,-0.7,1.8,2470.268,13.33,0.016,122.7
2020-07-03T01:52:03,42.805,6.029,-0.009,-0.011,0.007,106.0,108.0,101.0,13.4,1505.4,327.5,-0.7,1.9,2470.305,13.34,0.014,219.3
2020-07-03T01:55:03,42.805,6.029,0.002,0.017,0.016,105.0,109.0,102.0,13.4,1505.4,327.2,-0.7,1.9,2470.286,13.34,0.017,6.7
2020-07-03T01:58:03,42.805,6.029,0.013,-0.012,0.038,105.0,107.0,103.0,13.4,1505.4,326.2,-0.7,1.8,2470.261,13.34,0.017,132.7
2020-07-03T02:04:03,42.805,6.029,0.002,0.002,0.01,106.0,106.0,103.0,13.4,1505.3,324.8,-0.8,1.8,2470.339,13.32,0.002,45.0
2020-07-03T02:07:03,42.805,6.029,-0.013,0.015,0.026,105.0,109.0,103.0,13.3,1505.3,324.7,-0.7,1.8,2470.355,13.32,0.019,319.1
2020-07-03T02:10:03,42.805,6.029,-0.006,0.007,-0.001,105.0,108.0,103.0,13.3,1505.3,327.4,-0.7,1.8,2470.324,13.33,0.009,319.4
2020-07-03T02:13:03,42.805,6.029,-0.009,0.019,0.006,107.0,109.0,102.0,13.4,1505.3,323.5,-0.7,1.8,2470.33,13.33,0.021,334.7
2020-07-03T02:16:03,42.805,6.029,-0.014,0.005,-0.011,106.0,109.0,104.0,13.4,1505.3,327.5,-0.7,1.8,2470.264,13.33,0.014,289.6
2020-07-03T02:19:03,42.805,6.029,-0.06,-0.019,-0.093,106.0,110.0,102.0,13.4,1505.3,326.4,-0.7,1.8,2470.329,13.33,0.062,252.4
2020-07-03T02:22:03,42.805,6.029,-0.054,0.015,-0.001,106.0,108.0,103.0,13.4,1505.3,325.2,-0.7,1.8,2470.346,13.33,0.056,285.5
2020-07-03T02:25:03,42.805,6.029,-0.031,0.015,0.005,106.0,109.0,103.0,13.4,1505.4,326.5,-0.7,1.8,2470.271,13.34,0.034,295.8
2020-07-03T02:28:03,42.805,6.029,-0.022,-0.015,0.002,107.0,107.0,102.0,13.3,1505.3,326.3,-0.7,1.8,2470.317,13.33,0.026,235.7
2020-07-03T02:31:03,42.805,6.029,-0.032,-0.006,-0.012,107.0,109.0,103.0,13.4,1505.4,324.7,-0.7,1.8,2470.312,13.34,0.032,259.4
2020-07-03T02:34:03,42.805,6.029,-0.013,0.001,0.026,106.0,110.0,104.0,13.4,1505.4,325.3,-0.7,1.8,2470.32,13.34,0.013,274.4
2020-07-03T02:37:03,42.805,6.029,-0.011,-0.001,0.004,106.0,108.0,102.0,13.3,1505.4,322.9,-0.7,1.8,2470.289,13.34,0.011,264.8
2020-07-03T02:40:03,42.805,6.029,-0.023,0.005,-0.029,106.0,108.0,102.0,13.4,1505.4,326.7,-0.7,1.8,2470.314,13.34,0.023,282.3
2020-07-03T02:43:03,42.805,6.029,-0.03,0.003,0.016,105.0,109.0,103.0,13.4,1505.4,328.0,-0.7,1.8,2470.344,13.34,0.03,275.7
2020-07-03T02:46:03,42.805,6.029,-0.016,-0.009,-0.013,106.0,109.0,102.0,13.4,1505.4,325.2,-0.7,1.8,2470.324,13.34,0.018,240.6
2020-07-03T02:49:03,42.805,6.029,-0.017,0.02,-0.007,105.0,109.0,103.0,13.4,1505.4,326.7,-0.7,1.8,2470.318,13.34,0.026,319.6
2020-07-03T02:52:03,42.805,6.029,-0.004,-0.003,-0.001,105.0,106.0,104.0,13.4,1505.4,324.0,-0.7,1.8,2470.335,13.34,0.005,233.1
2020-07-03T02:55:03,42.805,6.029,-0.023,0.007,-0.02,105.0,109.0,102.0,13.4,1505.4,324.7,-0.7,1.8,2470.331,13.34,0.024,286.9
2020-07-03T02:58:03,42.805,6.029,-0.017,-0.001,0.007,108.0,108.0,102.0,13.4,1505.4,325.9,-0.7,1.8,2470.316,13.34,0.017,266.6
2020-07-03T03:04:03,42.805,6.029,-0.019,0.004,-0.028,106.0,108.0,102.0,13.3,1505.3,323.5,-0.7,1.8,2470.392,13.32,0.019,281.9
2020-07-03T03:07:03,42.805,6.029,-0.011,0.006,0.037,106.0,107.0,101.0,13.4,1505.3,325.8,-0.8,1.8,2470.369,13.32,0.012,298.6
2020-07-03T03:10:03,42.805,6.029,-0.002,-0.01,0.003,107.0,107.0,102.0,13.4,1505.3,327.1,-0.7,1.8,2470.35,13.33,0.01,191.3
2020-07-03T03:13:03,42.805,6.029,-0.007,0.005,0.016,107.0,106.0,104.0,13.3,1505.3,326.3,-0.7,1.9,2470.346,13.33,0.008,305.5
2020-07-03T03:16:03,42.805,6.029,-0.009,0.009,-0.001,106.0,109.0,103.0,13.4,1505.3,328.5,-0.7,1.8,2470.401,13.33,0.012,315.0
2020-07-03T03:19:03,42.805,6.029,0.005,-0.003,0.036,106.0,108.0,103.0,13.4,1505.3,324.8,-0.7,1.8,2470.303,13.33,0.005,121.0
2020-07-03T03:22:03,42.805,6.029,-0.016,-0.002,-0.023,106.0,108.0,103.0,13.4,1505.4,326.1,-0.7,1.8,2470.37,13.34,0.016,262.9
2020-07-03T03:25:03,42.805,6.029,-0.011,0.0,-0.009,107.0,109.0,103.0,13.4,1505.4,323.4,-0.7,1.8,2470.366,13.34,0.011,270.0
2020-07-03T03:28:03,42.805,6.029,-0.007,-0.009,-0.011,107.0,109.0,102.0,13.4,1505.4,325.6,-0.7,1.9,2470.367,13.34,0.011,217.9
2020-07-03T03:31:03,42.805,6.029,-0.009,-0.015,0.016,107.0,108.0,104.0,13.4,1505.4,323.7,-0.7,1.8,2470.339,13.34,0.017,211.0
2020-07-03T03:34:03,42.805,6.029,-0.011,0.009,0.0,106.0,108.0,103.0,13.3,1505.4,327.3,-0.8,1.8,2470.381,13.34,0.014,309.3
2020-07-03T03:37:03,42.805,6.029,-0.021,0.006,-0.001,106.0,109.0,105.0,13.3,1505.4,324.9,-0.7,1.9,2470.357,13.34,0.021,285.9
2020-07-03T03:40:03,42.805,6.029,-0.024,0.006,-0.023,106.0,109.0,103.0,13.4,1505.4,327.6,-0.7,1.9,2470.362,13.34,0.024,284.0
2020-07-03T03:43:03,42.805,6.029,-0.015,0.014,0.0,108.0,109.0,102.0,13.4,1505.4,323.0,-0.7,1.8,2470.348,13.34,0.02,313.0
2020-07-03T03:46:03,42.805,6.029,0.0,0.001,0.036,105.0,107.0,103.0,13.4,1505.4,324.8,-0.7,1.8,2470.348,13.34,0.001,0.0
2020-07-03T03:49:03,42.805,6.029,-0.029,-0.011,-0.032,107.0,108.0,102.0,13.4,1505.4,323.0,-0.7,1.8,2470.377,13.34,0.031,249.2
2020-07-03T03:52:03,42.805,6.029,-0.018,-0.008,-0.032,108.0,108.0,102.0,13.3,1505.3,326.5,-0.7,1.8,2470.376,13.33,0.019,246.0
2020-07-03T03:55:03,42.805,6.029,-0.056,-0.005,0.005,106.0,108.0,102.0,13.3,1505.3,324.7,-0.7,1.8,2470.37,13.33,0.056,264.9
2020-07-03T03:58:03,42.805,6.029,-0.012,-0.003,-0.002,107.0,108.0,103.0,13.4,1505.3,326.5,-0.7,1.8,2470.364,13.33,0.012,256.0
2020-07-03T04:04:03,42.805,6.029,-0.03,0.012,-0.024,106.0,107.0,103.0,13.3,1505.3,325.3,-0.7,1.8,2470.414,13.32,0.032,291.8
2020-07-03T04:07:03,42.805,6.029,-0.044,-0.007,-0.021,107.0,107.0,103.0,13.4,1505.3,325.7,-0.8,1.8,2470.352,13.32,0.044,261.0
2020-07-03T04:10:03,42.805,6.029,-0.034,0.009,-0.012,106.0,107.0,104.0,13.4,1505.3,325.2,-0.7,1.8,2470.354,13.33,0.035,284.8
2020-07-03T04:13:03,42.805,6.029,-0.041,0.0,-0.034,106.0,107.0,104.0,13.3,1505.3,325.3,-0.7,1.8,2470.369,13.33,0.041,270.0
2020-07-03T04:16:03,42.805,6.029,-0.037,0.02,-0.004,107.0,107.0,104.0,13.4,1505.3,323.8,-0.7,1.8,2470.38,13.33,0.042,298.4
2020-07-03T04:19:03,42.805,6.029,-0.039,-0.011,-0.013,106.0,107.0,103.0,13.4,1505.3,326.8,-0.7,1.8,2470.408,13.33,0.04,254.3
2020-07-03T04:22:03,42.805,6.029,-0.036,-0.006,-0.005,106.0,107.0,103.0,13.4,1505.3,328.0,-0.7,1.8,2470.418,13.33,0.036,260.5
2020-07-03T04:25:03,42.805,6.029,-0.024,-0.004,-0.035,105.0,108.0,102.0,13.4,1505.3,325.2,-0.7,1.9,2470.389,13.33,0.024,260.5
2020-07-03T04:28:03,42.805,6.029,-0.009,0.008,-0.002,107.0,108.0,102.0,13.3,1505.3,324.3,-0.7,1.9,2470.395,13.33,0.012,311.6
2020-07-03T04:31:03,42.805,6.029,0.0,0.0,0.0,107.0,109.0,102.0,13.4,1505.3,323.7,-0.7,1.8,2470.376,13.33,0.0,0.0
2020-07-03T04:34:03,42.805,6.029,0.014,-0.002,0.028,107.0,109.0,103.0,13.3,1505.4,323.2,-0.7,1.8,2470.382,13.34,0.014,98.1
2020-07-03T04:37:03,42.805,6.029,-0.011,0.015,0.031,107.0,109.0,103.0,13.4,1505.4,324.9,-0.7,1.8,2470.398,13.34,0.018,323.7
2020-07-03T04:40:03,42.805,6.029,0.001,-0.007,0.002,106.0,109.0,101.0,13.4,1505.4,326.0,-0.7,1.8,2470.374,13.34,0.007,171.9
2020-07-03T04:43:03,42.805,6.029,0.005,0.018,0.015,107.0,109.0,103.0,13.3,1505.4,326.4,-0.7,1.8,2470.401,13.34,0.018,15.5
2020-07-03T04:46:03,42.805,6.029,0.014,0.022,0.038,107.0,110.0,103.0,13.4,1505.4,326.6,-0.7,1.8,2470.353,13.34,0.026,32.5
2020-07-03T04:49:03,42.805,6.029,0.025,0.013,0.049,106.0,108.0,103.0,13.4,1505.4,324.6,-0.7,1.8,2470.419,13.34,0.028,62.5
2020-07-03T04:52:03,42.805,6.029,0.035,0.001,0.066,107.0,107.0,103.0,13.4,1505.4,325.8,-0.7,1.9,2470.384,13.34,0.035,88.4
2020-07-03T04:55:03,42.805,6.029,0.013,0.009,0.031,106.0,109.0,103.0,13.4,1505.4,325.5,-0.7,1.9,2470.382,13.34,0.015,55.3
2020-07-03T04:58:03,42.805,6.029,0.032,0.002,0.03,106.0,108.0,103.0,13.4,1505.4,325.0,-0.7,1.8,2470.369,13.34,0.032,86.4
2020-07-03T05:04:03,42.805,6.029,-0.02,0.002,-0.018,106.0,107.0,103.0,13.4,1505.3,326.9,-0.7,1.8,2470.441,13.32,0.02,275.7
2020-07-03T05:07:03,42.805,6.029,-0.006,0.005,-0.005,105.0,108.0,104.0,13.3,1505.3,323.2,-0.7,1.8,2470.468,13.33,0.007,309.8
2020-07-03T05:13:03,42.805,6.029,0.002,0.013,0.01,107.0,107.0,103.0,13.4,1505.3,328.4,-0.7,1.8,2470.468,13.31,0.013,8.7
2020-07-03T05:16:03,42.805,6.029,-0.055,0.01,0.021,106.0,110.0,104.0,13.3,1505.3,327.0,-0.7,1.9,2470.467,13.32,0.055,280.3
2020-07-03T05:19:03,42.805,6.029,0.013,0.006,0.046,106.0,109.0,103.0,13.4,1505.3,326.4,-0.7,1.8,2470.382,13.33,0.014,65.2
2020-07-03T05:22:03,42.805,6.029,-0.027,0.006,-0.006,106.0,108.0,102.0,13.4,1505.3,326.5,-0.7,1.8,2470.392,13.33,0.027,282.5
2020-07-03T05:25:03,42.805,6.029,-0.033,0.0,0.008,106.0,108.0,102.0,13.3,1505.3,323.5,-0.7,1.8,2470.44,13.33,0.033,270.0
2020-07-03T05:28:03,42.805,6.029,0.026,0.023,0.046,107.0,108.0,103.0,13.4,1505.3,323.3,-0.7,1.8,2470.402,13.33,0.034,48.5
2020-07-03T05:31:03,42.805,6.029,0.014,0.012,0.0,106.0,109.0,102.0,13.4,1505.3,325.2,-0.7,1.8,2470.403,13.33,0.018,49.4
2020-07-03T05:37:03,42.805,6.029,0.022,0.009,0.045,104.0,107.0,102.0,13.3,1505.3,324.7,-0.7,1.8,2470.443,13.32,0.023,67.8
2020-07-03T05:40:03,42.805,6.029,-0.025,0.009,-0.017,106.0,107.0,102.0,13.4,1505.3,322.7,-0.7,1.8,2470.429,13.32,0.026,289.8
2020-07-03T05:43:03,42.805,6.029,-0.006,-0.012,0.009,106.0,108.0,103.0,13.3,1505.3,328.3,-0.7,1.9,2470.444,13.33,0.013,206.6
2020-07-03T05:46:03,42.805,6.029,-0.008,-0.008,0.022,106.0,107.0,102.0,13.4,1505.3,324.7,-0.7,1.9,2470.364,13.33,0.011,225.0
2020-07-03T05:49:03,42.805,6.029,0.039,0.004,0.072,105.0,107.0,103.0,13.3,1505.3,326.1,-0.7,1.8,2470.383,13.33,0.039,84.1
2020-07-03T05:52:03,42.805,6.029,0.015,0.003,0.05,105.0,106.0,103.0,13.4,1505.4,324.5,-0.7,1.8,2470.403,13.34,0.015,78.7
2020-07-03T05:55:03,42.805,6.029,0.026,0.002,0.035,106.0,106.0,102.0,13.3,1505.4,327.5,-0.7,1.9,2470.416,13.34,0.026,85.6
2020-07-03T05:58:03,42.805,6.029,0.013,0.008,0.002,105.0,106.0,102.0,13.4,1505.4,325.6,-0.7,1.9,2470.384,13.34,0.015,58.4
2020-07-03T06:04:03,42.805,6.029,-0.003,-0.008,0.018,102.0,106.0,102.0,13.3,1505.3,324.2,-0.7,1.8,2470.448,13.32,0.008,200.6
2020-07-03T06:07:03,42.805,6.029,-0.016,0.008,0.024,103.0,107.0,101.0,13.4,1505.3,324.7,-0.7,1.8,2470.445,13.32,0.017,296.6
2020-07-03T06:10:03,42.805,6.029,-0.013,0.018,0.014,104.0,106.0,101.0,13.3,1505.3,328.1,-0.7,1.8,2470.399,13.33,0.022,324.2
2020-07-03T06:13:03,42.805,6.029,0.0,0.013,0.023,105.0,106.0,102.0,13.4,1505.3,325.9,-0.7,1.9,2470.414,13.33,0.013,0.0
2020-07-03T06:16:03,42.805,6.029,0.044,0.016,0.056,103.0,106.0,103.0,13.4,1505.4,327.2,-0.7,1.8,2470.422,13.34,0.046,70.0
2020-07-03T06:19:03,42.805,6.029,-0.007,0.0,0.019,103.0,106.0,100.0,13.4,1505.4,325.5,-0.7,1.8,2470.416,13.34,0.007,270.0
2020-07-03T06:22:03,42.805,6.029,-0.002,-0.003,-0.01,103.0,105.0,100.0,13.3,1505.4,324.1,-0.7,1.8,2470.409,13.34,0.003,213.7
2020-07-03T06:25:03,42.805,6.029,0.032,0.002,0.008,103.0,106.0,102.0,13.4,1505.4,326.9,-0.7,1.8,2470.409,13.34,0.032,86.4
2020-07-03T06:28:03,42.805,6.029,0.0,-0.004,0.017,105.0,106.0,101.0,13.4,1505.4,322.8,-0.7,1.8,2470.415,13.34,0.004,180.0
2020-07-03T06:31:03,42.805,6.029,0.005,0.002,0.041,105.0,107.0,102.0,13.4,1505.4,327.0,-0.7,1.8,2470.422,13.34,0.005,68.2
2020-07-03T06:34:03,42.805,6.029,0.016,0.01,0.033,103.0,107.0,103.0,13.4,1505.4,325.0,-0.7,1.8,2470.376,13.34,0.018,58.0
2020-07-03T06:37:03,42.805,6.029,0.054,0.007,0.051,104.0,106.0,102.0,13.3,1505.4,325.7,-0.7,1.8,2470.418,13.34,0.054,82.6
2020-07-03T06:40:03,42.805,6.029,-0.014,0.023,0.007,103.0,104.0,100.0,13.4,1505.4,326.9,-0.7,1.8,2470.362,13.34,0.026,328.7
2020-07-03T06:43:03,42.805,6.029,0.048,0.01,0.031,103.0,105.0,101.0,13.4,1505.4,325.2,-0.7,1.8,2470.375,13.34,0.049,78.2
2020-07-03T06:46:03,42.805,6.029,0.009,-0.008,-0.005,103.0,105.0,101.0,13.4,1505.4,323.5,-0.7,1.8,2470.328,13.34,0.012,131.6
2020-07-03T06:49:03,42.805,6.029,-0.005,-0.01,-0.009,103.0,105.0,101.0,13.3,1505.4,326.7,-0.7,1.8,2470.377,13.34,0.011,206.6
2020-07-03T06:52:03,42.805,6.029,-0.009,0.006,-0.024,104.0,105.0,100.0,13.4,1505.4,325.6,-0.7,1.9,2470.369,13.35,0.01,303.7
2020-07-03T06:55:03,42.805,6.029,-0.026,0.024,-0.011,102.0,104.0,100.0,13.3,1505.4,327.6,-0.7,1.8,2470.362,13.35,0.035,312.7
2020-07-03T06:58:03,42.805,6.029,-0.01,-0.017,-0.039,103.0,105.0,101.0,13.4,1505.4,326.2,-0.7,1.8,2470.406,13.35,0.019,210.5
2020-07-03T07:04:03,42.805,6.029,-0.039,0.004,-0.024,103.0,105.0,100.0,13.4,1505.3,327.8,-0.7,1.9,2470.409,13.33,0.039,275.9
2020-07-03T07:07:03,42.805,6.029,-0.028,0.007,0.001,103.0,104.0,101.0,13.4,1505.4,327.0,-0.7,1.8,2470.417,13.34,0.028,284.0
2020-07-03T07:10:03,42.805,6.029,-0.044,0.002,-0.057,107.0,105.0,103.0,13.3,1505.4,325.9,-0.7,1.8,2470.387,13.34,0.044,272.6
2020-07-03T07:13:03,42.805,6.029,-0.034,0.012,-0.023,104.0,106.0,102.0,13.3,1505.4,323.8,-0.7,1.8,2470.394,13.34,0.036,289.4
2020-07-03T07:16:03,42.805,6.029,-0.03,0.004,-0.005,104.0,105.0,100.0,13.4,1505.4,323.0,-0.7,1.8,2470.344,13.34,0.03,277.6
2020-07-03T07:19:03,42.805,6.029,-0.022,0.0,-0.05,104.0,105.0,101.0,13.4,1505.4,325.9,-0.7,1.8,2470.378,13.35,0.022,270.0
2020-07-03T07:22:03,42.805,6.029,-0.037,-0.02,-0.016,103.0,105.0,102.0,13.4,1505.4,325.6,-0.7,1.8,2470.353,13.35,0.042,241.6
2020-07-03T07:25:03,42.805,6.029,-0.014,-0.002,-0.003,104.0,105.0,100.0,13.4,1505.4,328.5,-0.7,1.9,2470.348,13.35,0.014,261.9
2020-07-03T07:31:03,42.805,6.029,-0.031,-0.01,-0.036,104.0,104.0,100.0,13.4,1505.3,325.0,-0.7,1.8,2470.377,13.33,0.032,252.1
2020-07-03T07:34:03,42.805,6.029,-0.012,0.001,-0.015,104.0,106.0,101.0,13.4,1505.4,326.6,-0.7,1.9,2470.363,13.34,0.012,274.8
2020-07-03T07:37:03,42.805,6.029,-0.045,0.012,-0.043,103.0,106.0,102.0,13.3,1505.4,323.4,-0.7,1.8,2470.369,13.34,0.046,284.9
2020-07-03T07:40:03,42.805,6.029,-0.03,-0.007,-0.022,103.0,106.0,101.0,13.4,1505.4,323.0,-0.7,1.8,2470.385,13.34,0.03,256.9
2020-07-03T07:43:03,42.805,6.029,-0.057,0.003,-0.03,104.0,106.0,100.0,13.4,1505.4,324.2,-0.7,1.8,2470.365,13.34,0.057,273.0
2020-07-03T07:46:03,42.805,6.029,-0.038,-0.006,-0.037,105.0,105.0,100.0,13.4,1505.4,328.1,-0.7,1.8,2470.349,13.35,0.038,261.0
2020-07-03T07:49:03,42.805,6.029,-0.035,-0.019,-0.053,102.0,106.0,102.0,13.4,1505.4,327.5,-0.7,1.9,2470.362,13.35,0.039,241.5
2020-07-03T07:55:03,42.805,6.029,-0.015,-0.019,-0.018,103.0,106.0,101.0,13.4,1505.3,323.5,-0.7,1.8,2470.374,13.33,0.024,218.3
2020-07-03T07:58:03,42.805,6.029,-0.056,-0.001,-0.04,104.0,106.0,101.0,13.4,1505.4,328.1,-0.8,1.8,2470.41,13.34,0.056,269.0
2020-07-03T08:04:03,42.805,6.029,-0.034,-0.007,-0.032,104.0,105.0,100.0,13.4,1505.3,324.6,-0.7,1.9,2470.414,13.32,0.034,258.4
2020-07-03T08:07:03,42.805,6.029,-0.036,-0.014,-0.019,105.0,105.0,101.0,13.4,1505.3,324.7,-0.7,1.9,2470.369,13.33,0.038,248.8
2020-07-03T08:10:03,42.805,6.029,-0.016,-0.001,-0.015,102.0,106.0,100.0,13.4,1505.3,326.7,-0.7,1.8,2470.375,13.33,0.016,266.4
2020-07-03T08:13:03,42.805,6.029,-0.025,0.01,-0.034,104.0,106.0,101.0,13.3,1505.3,324.9,-0.7,1.8,2470.359,13.33,0.026,291.8
2020-07-03T08:16:03,42.805,6.029,-0.036,-0.013,-0.04,104.0,106.0,101.0,13.3,1505.4,326.1,-0.7,1.8,2470.377,13.34,0.038,250.1
2020-07-03T08:19:03,42.805,6.029,-0.024,-0.009,-0.036,105.0,106.0,99.0,13.3,1505.4,323.2,-0.7,1.8,2470.334,13.34,0.025,249.4
2020-07-03T08:22:03,42.805,6.029,-0.019,-0.026,-0.013,102.0,106.0,100.0,13.3,1505.4,323.8,-0.7,1.8,2470.328,13.34,0.032,216.2
2020-07-03T08:25:03,42.805,6.029,-0.047,0.01,-0.025,102.0,106.0,101.0,13.4,1505.4,328.5,-0.7,1.8,2470.356,13.34,0.048,282.0
2020-07-03T08:28:03,42.805,6.029,-0.005,0.001,-0.017,102.0,106.0,101.0,13.4,1505.4,324.4,-0.7,1.8,2470.345,13.35,0.005,281.3
2020-07-03T08:31:03,42.805,6.029,0.0,-0.008,0.027,102.0,106.0,99.0,13.4,1505.4,327.0,-0.7,1.9,2470.309,13.35,0.008,180.0
2020-07-03T08:34:03,42.805,6.029,-0.012,-0.013,-0.038,102.0,108.0,101.0,13.4,1505.4,323.3,-0.7,1.8,2470.308,13.35,0.017,222.7
2020-07-03T08:37:03,42.805,6.029,0.02,-0.001,-0.01,104.0,106.0,100.0,13.3,1505.4,327.9,-0.7,1.8,2470.32,13.35,0.02,92.9
2020-07-03T08:40:03,42.805,6.029,-0.001,-0.013,-0.051,104.0,107.0,100.0,13.3,1505.4,323.9,-0.7,1.9,2470.306,13.35,0.013,184.4
2020-07-03T08:43:03,42.805,6.029,-0.004,-0.005,-0.002,102.0,107.0,101.0,13.4,1505.4,324.4,-0.7,1.8,2470.281,13.35,0.006,218.7
2020-07-03T08:46:03,42.805,6.029,-0.042,-0.014,-0.044,102.0,107.0,101.0,13.4,1505.4,323.7,-0.7,1.8,2470.342,13.35,0.044,251.6
2020-07-03T08:49:03,42.805,6.029,0.034,0.0,0.042,102.0,106.0,101.0,13.4,1505.4,328.4,-0.7,1.8,2470.3,13.35,0.034,90.0
2020-07-03T08:52:03,42.805,6.029,0.05,-0.003,0.055,103.0,105.0,101.0,13.4,1505.4,324.8,-0.7,1.8,2470.295,13.35,0.05,93.4
2020-07-03T08:55:03,42.805,6.029,0.048,0.011,0.044,104.0,107.0,101.0,13.4,1505.4,325.6,-0.7,1.9,2470.28,13.35,0.049,77.1
2020-07-03T08:58:03,42.805,6.029,0.082,0.006,0.071,102.0,106.0,101.0,13.4,1505.4,326.2,-0.7,1.8,2470.313,13.35,0.082,85.8
2020-07-03T09:04:03,42.805,6.029,0.066,0.015,0.073,102.0,106.0,100.0,13.4,1505.3,326.0,-0.8,1.8,2470.368,13.33,0.067,77.2
2020-07-03T09:07:03,42.805,6.029,0.029,0.015,0.029,104.0,105.0,101.0,13.4,1505.4,325.6,-0.7,1.8,2470.286,13.34,0.032,62.6
2020-07-03T09:10:03,42.805,6.029,0.002,0.009,0.033,102.0,105.0,102.0,13.4,1505.4,325.4,-0.7,1.8,2470.283,13.34,0.009,12.5
2020-07-03T09:13:03,42.805,6.029,0.027,0.007,0.054,103.0,106.0,101.0,13.4,1505.4,326.5,-0.7,1.8,2470.288,13.35,0.027,75.5
2020-07-03T09:16:03,42.805,6.029,0.022,-0.003,0.026,103.0,105.0,101.0,13.4,1505.4,326.4,-0.7,1.8,2470.279,13.35,0.022,97.8
2020-07-03T09:19:03,42.805,6.029,0.032,0.02,0.044,107.0,106.0,102.0,13.4,1505.4,327.8,-0.7,1.8,2470.295,13.35,0.037,58.0
2020-07-03T09:22:03,42.805,6.029,0.025,0.0,0.01,103.0,106.0,101.0,13.3,1505.4,326.5,-0.7,1.8,2470.263,13.35,0.025,90.0
2020-07-03T09:25:03,42.805,6.029,0.058,0.015,0.064,103.0,105.0,101.0,13.4,1505.4,327.7,-0.7,1.8,2470.263,13.35,0.059,75.5
2020-07-03T09:28:03,42.805,6.029,0.05,0.013,0.032,105.0,106.0,100.0,13.4,1505.4,326.7,-0.7,1.8,2470.279,13.35,0.051,75.4
2020-07-03T09:31:03,42.805,6.029,0.038,0.004,0.048,104.0,105.0,102.0,13.4,1505.4,327.9,-0.7,1.8,2470.261,13.35,0.038,84.0
2020-07-03T09:34:03,42.805,6.029,0.065,-0.012,0.027,104.0,106.0,100.0,13.4,1505.4,325.0,-0.7,1.8,2470.255,13.35,0.066,100.5
2020-07-03T09:37:03,42.805,6.029,0.051,0.016,0.06,106.0,105.0,101.0,13.4,1505.4,328.4,-0.7,1.8,2470.236,13.35,0.053,72.6
2020-07-03T09:40:03,42.805,6.029,0.042,0.013,0.056,105.0,105.0,100.0,13.4,1505.4,324.4,-0.7,1.8,2470.279,13.35,0.043,72.8
2020-07-03T09:43:03,42.805,6.029,0.047,-0.006,0.054,103.0,106.0,100.0,13.4,1505.4,326.9,-0.7,1.8,2470.231,13.35,0.047,97.3
2020-07-03T09:46:03,42.805,6.029,0.026,0.008,0.007,103.0,105.0,102.0,13.4,1505.4,323.5,-0.7,1.8,2470.292,13.35,0.027,72.9
2020-07-03T09:49:03,42.805,6.029,0.02,0.007,0.011,104.0,104.0,100.0,13.4,1505.4,327.0,-0.7,1.8,2470.27,13.35,0.021,70.7
2020-07-03T09:52:03,42.805,6.029,0.015,0.0,0.016,103.0,105.0,103.0,13.4,1505.4,325.8,-0.7,1.8,2470.208,13.35,0.015,90.0
2020-07-03T09:55:03,42.805,6.029,0.01,-0.018,0.028,103.0,108.0,100.0,13.4,1505.4,325.7,-0.7,1.8,2470.284,13.35,0.02,150.9
2020-07-03T09:58:03,42.805,6.029,0.01,-0.008,0.023,104.0,106.0,101.0,13.4,1505.4,325.2,-0.7,1.8,2470.257,13.35,0.012,128.7
2020-07-03T10:04:03,42.805,6.029,0.013,-0.007,0.015,101.0,106.0,102.0,13.3,1505.3,326.5,-0.8,1.8,2470.277,13.33,0.014,118.3
2020-07-03T10:07:03,42.805,6.029,0.015,0.018,0.01,104.0,105.0,101.0,13.3,1505.4,325.1,-0.7,1.8,2470.257,13.34,0.023,39.8
2020-07-03T10:10:03,42.805,6.029,-0.002,0.0,-0.007,106.0,106.0,103.0,13.4,1505.4,326.8,-0.7,1.9,2470.274,13.34,0.002,270.0
2020-07-03T10:13:03,42.805,6.029,-0.017,-0.011,-0.02,105.0,107.0,102.0,13.4,1505.4,323.9,-0.7,1.8,2470.263,13.34,0.02,237.1